Location: Tabor
(49.4170°N, 14.6670°E)
Time: 16:35:40
(UTC+01:00)

ISS - Pass Details

Date: 01 December 2023
Orbit: 414 x 417 km, 51.6° (Epoch: 23 February)

Event Time Altitude Azimuth Distance (km) Brightness Sun altitude
Rises 18:14:23 0° 289° (WNW) 2,382 1.1 -20.2°
Reaches altitude 10° 18:16:32 10° 283° (WNW) 1,518 0.0 -20.6°
Maximum altitude 18:19:49 46° 209° (SSW) 587 -2.8 -21.1°
Enters shadow 18:20:17 42° 183° (S) 620 -2.9 -21.2°
